Regional Weather Roundup
Issued by NWS

Home | Current Version | Previous Version | Graphics & Text | Print | Product List | Glossary On
Versions: 1 2 3 4 5 6 7 8 9 10 11 12 13 14 15 16 17 18 19 20 21 22 23 24 25 26 27 28 29 30 31 32 33 34 35 36 37 38 39 40 41 42 43 44 45 46 47 48 49 50
815
ASUS43 KMPX 201901
RWRMN
WEATHER ROUNDUP FOR MINNESOTA
NATIONAL WEATHER SERVICE TWIN CITIES/CHANHASSEN MN
100 PM CST MON FEB 20 2017


NOTE: "FAIR" INDICATES FEW OR NO CLOUDS BELOW 12,000 FEET WITH NO
SIGNIFICANT WEATHER AND/OR OBSTRUCTIONS TO VISIBILITY. N/A MEANS
CURRENT SKY AND/OR WEATHER CONDITIONS ARE NOT AVAILABLE.

MNZ060>063-068>070-202000-
   Twin Cities Metro

CITY           SKY/WX    TMP DP  RH WIND       PRES   REMARKS
TWIN CITIES    LGT RAIN  50  47  89 SE13      29.71F FOG
ST PAUL        LGT RAIN  50  50 100 SE14      29.72F FOG
CRYSTAL        RAIN      62  47  57 SE12      29.68F
BLAINE         RAIN      52  52 100 SE12G17   29.70F
LAKEVILLE      LGT RAIN  48  48 100 S9        29.71F
EDEN PRAIRIE   RAIN      50  48  93 SE9       29.68F FOG
SOUTH ST PAUL  LGT RAIN  49  49  97 SE9       29.72F
LAKE ELMO        N/A    N/A N/A N/A SE14      29.73F
$$
MNZ001>005-007-008-013>017-022>024-027-028-202000-
   Northwest Minnesota

CITY           SKY/WX    TMP DP  RH WIND       PRES   REMARKS
BEMIDJI        LGT RAIN  41  41  99 SE8       29.58F
HALLOCK        DRIZZLE   36  34  93 NW8       29.61R
ROSEAU         RAIN      43  37  81 W3        29.57F VSB 3/4
WARROAD        LGT RAIN  41  37  87 S9        29.58F VSB 3/4
THIEF RVR FALL LGT RAIN  41  41 100 W13       29.58S VSB<1/4
CROOKSTON      MIX PCPN  37  36  93 W10       29.60F VSB<1/4
FOSSTON        RAIN      45  43  93 E5        29.58F
DETROIT LAKES  DRZL/FOG  45  45 100 S5        29.61F VSB<1/4
MOORHEAD       FOG       46  46 100 SW3       29.59F VSB 3/4
PARK RAPIDS    FOG       45  42  89 SE17      29.60F VSB 1/4
MAHNOMEN       CLOUDY    46  46  97 S7        29.59S
$$
MNZ006-009>011-018-025>026-202000-
   North Central Minnesota

CITY           SKY/WX    TMP DP  RH WIND       PRES   REMARKS
BAUDETTE       LGT RAIN  41  40  96 SE8       29.59F FOG
FLAG ISLAND    RAIN      37  37 100 SE6       29.58F VSB 1
INTL FALLS     LGT RAIN  42  40  92 SE5       29.64F FOG
WASKISH        LGT RAIN  45  43  93 SE8       29.61F
BIG FORK       RAIN      45  43  93 S9G17     29.67F
LONGVILLE      RAIN      45  45 100 SE8       29.63F
GRAND RAPIDS   LGT RAIN  43  42  97 SE10      29.69F FOG
CRANE LAKE     LGT RAIN  46  39  76 SE3       29.69
ORR            RAIN      45  37  76 S6        29.67R
COOK           CLOUDY    45  39  81 S13G22    29.71R
WALKER         RAIN      45  44  97 SE6       29.61F
$$
MNZ012-019>021-037-202000-
   Northeast Minnesota

CITY           SKY/WX    TMP DP  RH WIND       PRES   REMARKS
DULUTH         LGT RAIN  42  38  85 SE9       29.75S FOG
ELY            LGT RAIN  41  37  87 SE10      29.71F
HIBBING        RAIN      42  42 100 SE7       29.71S FOG
EVELETH        CLOUDY    44  39  84 S12G17    29.74R
DULUTH HARBOR  LGT RAIN  36  34  93 NE10      29.79F
TWO HARBORS    CLOUDY    41  37  87 NE8       29.75F
SILVER BAY     LGT RAIN  37  37 100 NE7       29.78F
GRAND MARAIS     N/A     41  36  82 NE7       29.88F
G MARAIS ARPRT CLOUDY    36  30  80 NE7       29.86F
$$
MNZ029>031-032-039>041-046>048-054>057-064-202000-
   West Central Minnesota

CITY           SKY/WX    TMP DP  RH WIND       PRES   REMARKS
FERGUS FALLS   FOG       50  50 100 S10       29.63F VSB 3/4
WHEATON        LGT RAIN  52  50  93 SE8       29.61F
MORRIS         DRIZZLE   52  52 100 S5        29.62F
ALEXANDRIA     LGT RAIN  49  49 100 S8        29.65R FOG
ELBOW LAKE     LGT RAIN  49  49 100 SE8       29.63S VSB 1/2
WADENA         LGT RAIN  46  45  93 S8        29.64R
GLENWOOD       RAIN      52  50  93 S9        29.65R
APPLETON       DRIZZLE   54  52  94 CALM      29.62F
BENSON         DRIZZLE   54  48  82 SW6       29.65R
ORTONVILLE     DRIZZLE   52  50  93 CALM      29.60F
WILLMAR        LGT RAIN  52  52 100 SE12      29.65F
$$
MNZ033>034-036-042>043-049>051-058-059-202000-
   Central Minnesota

CITY           SKY/WX    TMP DP  RH WIND       PRES   REMARKS
ST CLOUD       LGT RAIN  48  48 100 SE12      29.66F FOG
SAUK CENTRE    LGT RAIN  49  49  99 SE10G16   29.63F
PAYNESVILLE    RAIN      50  50 100 S8        29.66F
AITKIN         MIX PCPN  48  45  87 SE12      29.66F
PINE RIVER     RAIN      43  43 100 SE8       29.68F VSB 3/4
BRAINERD       RAIN      47  46  97 SE9       29.66F FOG
STAPLES        LGT RAIN  46  46 100 SE10      29.62F
LONG PRAIRIE   RAIN      46  46 100 E13       29.62F
LITTLE FALLS   HVY RAIN  46  46 100 SE7       29.66F
LITCHFIELD     LGT RAIN  52  52 100 SE8       29.66F
BUFFALO        LGT RAIN  49  47  93 SE7       29.69F
MAPLE LAKE     LGT RAIN  48  47  98 SE5       29.68F VSB 1/2
HUTCHINSON     RAIN      51  50  99 SE9       29.67F
$$
MNZ037-044-045-052-053-202000-
   East Central Minnesota

CITY           SKY/WX    TMP DP  RH WIND       PRES   REMARKS
PRINCETON      RAIN      52  48  87 SE7       29.68F
MORA           RAIN      43  41  93 E6        29.70F
CAMBRIDGE      RAIN      48  43  81 E7        29.67F
RUSH CITY      LGT RAIN  48  46  93 SE8       29.71F
MOOSE LAKE     RAIN      39  37  93 NE3       29.71F
HINCKLEY       DRIZZLE   46  46 100 E5        29.71F
CLOQUET        HVY RAIN  37  36  93 E5        29.75F
MCGREGOR       CLOUDY    45  43  93 SE8       29.70F
$$
MNZ071>073-080-081-089-090-097-098-202000-
   Southwest Minnesota

CITY           SKY/WX    TMP DP  RH WIND       PRES   REMARKS
MONTEVIDEO     DRIZZLE   54  54 100 S7        29.64S
GRANITE FALLS  RAIN      55  53  95 SE14      29.65F
CANBY          CLOUDY    58  54  86 SW10G18   29.63R
MARSHALL       CLOUDY    57  54  89 SW15      29.62F
REDWOOD FALLS  LGT RAIN  54  52  93 S10       29.65F FOG
OLIVIA         LGT RAIN  52  50  93 S8        29.65F
PIPESTONE      CLOUDY    55  52  88 SW12      29.66R FOG
WINDOM         RAIN      54  54 100 S12       29.66F
WORTHINGTON    CLOUDY    55  54  96 S16       29.66F FOG
JACKSON        LGT RAIN  52  52 100 S14       29.68F
TRACY          LGT RAIN  55  55  99 S12       29.62F
SLAYTON        DRIZZLE   55  54  97 S17G24    29.65F
$$
MNZ065>067-074>077-082>085-091>093-202000-
   South Central Minnesota

CITY           SKY/WX    TMP DP  RH WIND       PRES   REMARKS
MANKATO        LGT RAIN  53  51  93 S12       29.69F FOG
NEW ULM        RAIN      52  52 100 S12       29.66F
ST JAMES       LGT RAIN  54  54 100 S15       29.68F
FAIRMONT       LGT RAIN  54  53  97 S15       29.69F FOG
GLENCOE        RAIN      50  51 100 SE7       29.66F
FARIBAULT      LGT RAIN  52  52 100 SE13G18   29.72F
OWATONNA       RAIN      52  48  87 S17       29.72F
WASECA         RAIN      52  50  93 SE14G20   29.72F
ALBERT LEA     RAIN      52  50  93 S14       29.73F
$$
MNZ078>079-086>088-094>096-202000-
   Southeast Minnesota

CITY           SKY/WX    TMP DP  RH WIND       PRES   REMARKS
ROCHESTER      LGT RAIN  49  49 100 S17       29.76F FOG
RED WING       RAIN      50  48  93 SE9       29.74F
WINONA         LGT RAIN  50  46  87 SE8       29.80F
AUSTIN         RAIN      50  48  93 S10G17    29.75F
PRESTON        LGT RAIN  48  46  95 SE12      29.79F
$$
ABBREVIATIONS USED IN REMARKS
   TC - TEMPERATURES IN CELSIUS
  WCI - WIND CHILL INDEX
   HX - HEAT INDEX
  VSB - VISIBILITY
$$




USA.gov is the U.S. government's official web portal to all federal, state and local government web resources and services.